Location: Cuiry
(49.3858°N, 3.7708°E)
Time: 23:48:49
(UTC+00:00)

Meteor 1-23 Rocket - Pass Details

Date: 12 January 2026
Orbit: 840 x 883 km, 81.3° (Epoch: 17 February)

Event Time Altitude Azimuth Distance (km) Brightness Sun altitude
Rises 17:43:39 0° 177° (S) 3,441 7.6 -14.7°
Reaches altitude 10° 17:46:07 10° 174° (S) 2,502 6.8 -15.1°
Maximum altitude 17:51:41 59° 96° (E) 990 4.2 -15.9°
Drops below altitude 10° 17:57:13 10° 18° (NNE) 2,491 6.3 -16.8°
Enters shadow 17:58:57 - 16° (NNE) 3,156 6.9 -17.1°
